SPACEBEE-36 (46935 NORAD) Tracking and Keplerian Element Data

This shows tracking and keplerian element data for the satellite.

Feedback or suggestion? Click here.




ElementValue
Catalog46935
NameSPACEBEE-36
Epoch Orbit942
Epoch Day21.08234618
Epoch Year2021
RAAN160.4517
Inclination97.3747
Eccentricity0.0017345
Argument of Perigee84.2095
Mean Anonmoly276.1141
Mean Motion15.21752778
Decay Rate3.689E-05
L11 46935U 20085G 21021.08234618 .00003689 00000-0 16518-3 0 9990
L22 46935 97.3747 160.4517 0017345 84.2095 276.1141 15.21752778 9420

Live tracking and technical data element details for SPACEBEE-36 (NORAD 46935). SPACEBEE-36 can be tracked NOW for your location showing map with azimuth and elevation plus other details from your city location.

Track the satellite on the map from your city or location and see movement details for azimuth, elevation, latitude, longitude, range, height, and movement on the map or in text.







IsCatalogInMostPopularTable: catalog: 46935, numindb: 25
Update: records affected: 1



GetName: 46935 SPACEBEE-36

Hit Count: updated at: Fri, 22 Jan 2021 18:50:19 GMT